Location: Kershaw
(34.5481°N, 80.5823°W)
Time: 16:28:57
(UTC+00:00)

Courier 1B Rocket - Pass Details

Date: 28 September 2022
Orbit: 920 x 1202 km, 28.2° (Epoch: 08 December)

Event Time Altitude Azimuth Distance (km) Brightness Sun altitude
Rises 06:44:24 0° 267° (W) 3,560 - -51.2°
Reaches altitude 10° 06:47:17 10° 257° (WSW) 2,633 - -50.8°
Maximum altitude 06:52:40 29° 198° (SSW) 1,660 - -50.1°
Drops below altitude 10° 06:58:16 10° 140° (SE) 2,754 - -49.3°
Sets 07:01:22 0° 130° (SE) 3,750 - -48.9°
